Weather History for Houghton, MI

Change the Weather History Date:

Wednesday, August 7, 2013

  Actual Average Record
Temperature  
Mean Temperature 60 °F -  
Max Temperature 68 °F 75 °F 92 °F (1983)
Min Temperature 53 °F 56 °F 44 °F (1952)
Degree Days  
Heating Degree Days 6    
Growing Degree Days 10 (Base 50)    
Moisture  
Dew Point 54 °F    
Average Humidity 85    
Maximum Humidity 100    
Minimum Humidity 40    
Precipitation  
Precipitation 0.02 in - - ()
Sea Level Pressure  
Sea Level Pressure 29.81 in    
Wind  
Wind Speed 6 mph (NNW)    
Max Wind Speed 14 mph    
Max Gust Speed 18 mph    
Visibility 5 miles    
Events Fog , Rain    
Averages and records for this station are not official NWS values.
T = Trace of Precipitation, MM = Missing Value Source: NWS Daily Summary

Daily Weather History Graph

Daily Weather History Graph

Search for Another Location

Airport:

Trip Planner

Search our weather history database for the weather conditions in past years. The results will help you decide how hot, cold, wet, or windy it might be!

Date:

Astronomy

Aug. 07, 2013 Rise Set
Actual Time 6:40 AM EDT 9:17 PM EDT
Civil Twilight 6:06 AM EDT 9:52 PM EDT
Nautical Twilight 5:22 AM EDT 10:35 PM EDT
Astronomical Twilight 4:31 AM EDT 11:26 PM EDT
Moon 7:36 AM EDT (8/7) 9:15 PM EDT (8/7)
Length of Visible Light 15h 46m
Length of Day
14h 37m
New Moon, 1% of the Moon is Illuminated
Aug 7
New Moon
Aug 14
First Quarter
Aug 20
Full
Aug 28
Last Quarter
Sep 5
New

Hourly Weather History & Observations

Time (EDT) Temp. Dew Point Humidity Pressure Visibility Wind Dir Wind Speed Gust Speed Precip Events Conditions
12:53 AM 60.1 °F 57.0 °F 90% 29.73 in 10.0 mi Calm Calm - N/A   Overcast
1:53 AM 60.1 °F 57.9 °F 93% 29.72 in 7.0 mi ENE 4.6 mph - N/A   Overcast
2:20 AM 60.8 °F 57.2 °F 88% 29.72 in 4.0 mi NE 4.6 mph - N/A   Overcast
2:23 AM 60.8 °F 57.2 °F 88% 29.72 in 1.5 mi NE 4.6 mph - N/A   Overcast
2:33 AM 60.8 °F 57.2 °F 88% 29.72 in 0.5 mi ENE 3.5 mph - N/A Fog Fog
2:43 AM 60.8 °F 57.2 °F 88% 29.73 in 0.2 mi NNE 4.6 mph - N/A Fog Fog
2:53 AM 60.1 °F 57.9 °F 93% 29.73 in 0.2 mi NNE 3.5 mph - N/A Fog Fog
3:03 AM 60.8 °F 57.2 °F 88% 29.73 in 0.5 mi Calm Calm - N/A Fog Fog
3:23 AM 60.8 °F 59.0 °F 94% 29.74 in 0.5 mi Calm Calm - N/A Fog Fog
3:43 AM 60.8 °F 57.2 °F 88% 29.75 in 2.0 mi WNW 6.9 mph - N/A   Overcast
3:51 AM 60.8 °F 57.2 °F 88% 29.75 in 8.0 mi NW 5.8 mph - N/A   Overcast
3:53 AM 60.1 °F 57.9 °F 93% 29.75 in 9.0 mi NNW 4.6 mph - N/A   Overcast
4:05 AM 59.0 °F 57.2 °F 94% 29.75 in 10.0 mi WNW 3.5 mph - N/A   Overcast
4:53 AM 59.0 °F 57.0 °F 93% 29.74 in 10.0 mi WNW 3.5 mph - N/A   Overcast
5:51 AM 57.2 °F 57.2 °F 100% 29.74 in 8.0 mi NW 5.8 mph - N/A   Overcast
5:53 AM 57.9 °F 57.0 °F 97% 29.73 in 7.0 mi NW 6.9 mph - N/A   Overcast
6:32 AM 57.2 °F 55.4 °F 94% 29.76 in 1.8 mi NW 12.7 mph - N/A   Overcast
6:36 AM 57.2 °F 55.4 °F 94% 29.76 in 0.8 mi NW 10.4 mph - N/A   Overcast
6:53 AM 57.9 °F 57.0 °F 97% 29.76 in 0.5 mi NW 10.4 mph - N/A Fog Fog
7:02 AM 57.2 °F 57.2 °F 100% 29.76 in 2.0 mi NW 10.4 mph - N/A   Overcast
7:10 AM 57.2 °F 57.2 °F 100% 29.76 in 6.0 mi NW 10.4 mph - N/A   Overcast
7:17 AM 57.2 °F 57.2 °F 100% 29.77 in 1.8 mi NW 11.5 mph - N/A   Overcast
7:29 AM 57.2 °F 57.2 °F 100% 29.77 in 3.0 mi NW 10.4 mph - N/A   Overcast
7:53 AM 57.9 °F 57.0 °F 97% 29.77 in 7.0 mi NNW 9.2 mph - N/A   Overcast
8:41 AM 57.2 °F 55.4 °F 94% 29.78 in 1.0 mi NNW 11.5 mph - N/A   Overcast
8:45 AM 57.2 °F 57.2 °F 100% 29.78 in 0.2 mi NNW 9.2 mph - N/A Fog Fog
8:53 AM 57.9 °F 55.9 °F 93% 29.79 in 0.2 mi NNW 10.4 mph - N/A Fog Fog
9:02 AM 57.2 °F 55.4 °F 94% 29.79 in 0.2 mi NNW 9.2 mph - N/A Fog Fog
9:09 AM 57.2 °F 55.4 °F 94% 29.79 in 0.2 mi North 11.5 mph - N/A Fog Fog
9:42 AM 57.2 °F 55.4 °F 94% 29.81 in 0.5 mi North 9.2 mph - N/A Fog Fog
9:53 AM 57.0 °F 55.0 °F 93% 29.82 in 1.8 mi North 9.2 mph - 0.00 in Rain Light Rain
10:18 AM 55.4 °F 53.6 °F 94% 29.82 in 1.5 mi North 8.1 mph 17.3 mph 0.00 in Rain Light Rain
10:25 AM 55.4 °F 53.6 °F 94% 29.83 in 3.0 mi North 10.4 mph - 0.00 in Rain Light Rain
10:49 AM 57.2 °F 55.4 °F 94% 29.83 in 6.0 mi North 8.1 mph - 0.00 in   Overcast
10:53 AM 55.9 °F 54.0 °F 93% 29.84 in 4.0 mi North 6.9 mph - 0.00 in   Overcast
11:15 AM 57.2 °F 53.6 °F 88% 29.85 in 2.0 mi North 6.9 mph - 0.01 in Rain Light Rain
11:24 AM 57.2 °F 55.4 °F 94% 29.85 in 3.0 mi North 10.4 mph - 0.01 in Rain Light Rain
11:33 AM 57.2 °F 53.6 °F 88% 29.85 in 2.5 mi North 8.1 mph - 0.01 in Rain Light Rain
11:40 AM 55.4 °F 53.6 °F 94% 29.85 in 5.0 mi North 8.1 mph - 0.02 in Rain Light Rain
11:53 AM 57.0 °F 54.0 °F 89% 29.86 in 8.0 mi NNW 9.2 mph - 0.02 in   Overcast
12:46 PM 59.0 °F 55.4 °F 88% 29.88 in 10.0 mi NNW 10.4 mph - N/A   Overcast
12:53 PM 59.0 °F 54.0 °F 83% 29.88 in 10.0 mi NW 11.5 mph - N/A   Overcast
1:14 PM 60.8 °F 53.6 °F 77% 29.88 in 10.0 mi NNW 11.5 mph - N/A   Scattered Clouds
1:53 PM 63.0 °F 51.1 °F 65% 29.90 in 10.0 mi NW 12.7 mph 18.4 mph N/A   Clear
2:53 PM 64.0 °F 46.0 °F 52% 29.91 in 10.0 mi North 13.8 mph - N/A   Clear
3:53 PM 66.9 °F 44.1 °F 44% 29.92 in 10.0 mi NNW 10.4 mph - N/A   Clear
4:53 PM 66.9 °F 42.1 °F 40% 29.93 in 10.0 mi NW 9.2 mph - N/A   Clear
5:53 PM 66.9 °F 42.1 °F 40% 29.92 in 10.0 mi WNW 9.2 mph - N/A   Clear
6:53 PM 66.0 °F 43.0 °F 43% 29.93 in 10.0 mi WNW 9.2 mph - N/A   Clear
7:53 PM 64.0 °F 44.1 °F 48% 29.93 in 10.0 mi WSW 5.8 mph - N/A   Clear
8:53 PM 61.0 °F 45.0 °F 56% 29.93 in 10.0 mi West 4.6 mph - N/A   Clear
9:53 PM 55.0 °F 46.9 °F 74% 29.94 in 10.0 mi Calm Calm - N/A   Clear
10:53 PM 53.1 °F 46.0 °F 77% 29.96 in 10.0 mi West 3.5 mph - N/A   Clear
11:53 PM 53.1 °F 46.9 °F 80% 29.98 in 10.0 mi NW 8.1 mph - N/A   Clear